Regional Weather Roundup
Issued by NWS Portland, ME

Home | Current Version | Previous Version | Text Only | Print | Product List | Glossary On
Versions: 1 2 3 4 5 6 7 8 9 10 11 12 13 14 15 16 17 18 19 20 21 22 23 24 25 26 27 28 29 30 31 32 33 34 35 36 37 38 39 40 41 42 43 44 45 46 47 48 49 50
000
ASUS41 KGYX 030305
RWRGYX
WEATHER ROUNDUP FOR MAINE AND NEW HAMPSHIRE
NATIONAL WEATHER SERVICE GRAY ME
1100 PM EDT TUE SEP 02 2014

MEZ002-005-006-010-012-015-018-020-021-024-026-027-029-030400-
MAINE

CITY           SKY/WX    TMP DP  RH WIND       PRES   REMARKS
PORTLAND       CLEAR     70  68  93 SW3       29.73F
SANFORD        PTCLDY    72  68  88 S5        29.74F
BAR HARBOR     CLOUDY    66  66 100 S3        29.75F VSB 1
WISCASSET      CLOUDY    68  67  96 CALM      29.75S FOG
ROCKLAND       CLOUDY    64  63  94 S3        29.73F VSB<1/4
FRYEBURG       PTCLDY    69  68  96 CALM      29.73F
LEWISTONAUBURN CLEAR     70  66  88 SE8       29.73S
AUGUSTA        CLOUDY    69  68  96 VRB6      29.73F FOG
WATERVILLE     CLOUDY    70  68  94 S6        29.69S
BANGOR         FOG       68  66  93 S8        29.75S VSB 1
GREENVILLE       N/A     69  69 100 VRB5      29.72F
MILLINOCKET    CLOUDY    70  68  93 VRB5      29.73F FOG
HOULTON        CLOUDY    71  68  90 S7        29.71F
PRESQUE ISLE   CLOUDY    72  66  83 SE3       29.69F
FRENCHVILLE    CLOUDY    67  66  97 S7        29.69F FOG
CARIBOU        CLOUDY    71  68  90 S6        29.69F
$$

NHZ002-005-008-009-011-012-014-030400-
NEW HAMPSHIRE

CITY           SKY/WX    TMP DP  RH WIND       PRES   REMARKS
PORTSMOUTH     MOCLDY    73  71  93 S5        29.72F
ROCHESTER      MOCLDY    73  71  93 CALM      29.73F FOG
NASHUA         CLEAR     75  74  97 CALM      29.75F
MANCHESTER     MOCLDY    75  73  93 S5        29.73F
CONCORD        CLEAR     73  72  96 S7        29.73F
LACONIA        CLEAR     75  70  83 S6        29.71F
PLYMOUTH       FAIR      68  68 100 CALM      29.71F FOG
BERLIN         MOCLDY    67  65  93 S5        29.74F
WHITEFIELD     MOCLDY    69  65  86 CALM      29.72F
JAFFREY        CLEAR     75  71  87 SW9       29.78F
LEBANON        HVY RAIN  72  68  87 VRB6G18   29.72R VSB 3/4
MT WASHINGTON  FOG       55  55 100 SW33G39     N/A  VSB 1/16
$$

VTZ005-007-008-030400-
VERMONT

CITY           SKY/WX    TMP DP  RH WIND       PRES   REMARKS
ST JOHNSBURY     N/A     69  68  96 MISG      29.72S
MONTPELIER     RAIN      65  64  97 NW8       29.80S FOG
BURLINGTON     LGT RAIN  66  63  90 E3        29.76F
$$

MAZ007-012-024-CTZ003-RIZ002-NYZ038-NYZ072-030400-
SOUTHERN NEW ENGLAND AND NY

CITY           SKY/WX    TMP DP  RH WIND       PRES   REMARKS
BOSTON         PTCLDY    77  71  82 SW9       29.75F
WORCESTER      CLEAR     74  70  87 SW12      29.80F
NANTUCKET      MOCLDY    70  70 100 SW9       29.82F FOG
PROVIDENCE     PTCLDY    76  71  85 SW9       29.79F
HARTFORD       MOCLDY    80  71  74 S9        29.75F
ALBANY         LGT RAIN  70  67  90 W12       29.80R FOG
NEW YORK CITY  MOCLDY    85  67  54 W22G35    29.79F
$$

ANZ081-ANZ082-ANZ150-NHZ014-MEZ023>029-030400-
COASTAL MARINE OBSERVATIONS

STATION/POSITION TIME  TEMP    WIND        PRES    WAVE
                       AIR SEA DIR/SP/G            HT/PER
                 (UTC) (F)     (DEG/KT/KT) (MB)    (FT/S)
MATINICUS ROCK   0200          180/ 17/ 19 1007.0F
PORTLAND WX BUOY 0250   66 63  210/  2/  2 1006.9S   2/ 6
WELLS            0200   69 63   CALM  /  2 1006.2F
ISLE OF SHOALS   0200   74     210/ 17/ 17 1006.5F
JEFFREYS LEDGE   0221      67                N/A     3/ 4
CASHES LEDGE BUO 0250   70 68              1006.8F   3/ 6
$$

.............KEY..............
   WCI - WIND CHILL
   TC  - TEMPERATURE IN CELSIUS
   VSB - VISIBILITY IN MILES
   HX  - HEAT INDEX
   FAIR- INDICATES FEW OR NO CLOUDS BELOW 12,000 FT, WITH NO
         SIGNIFICANT WEATHER AND/OR OBSTRUCTIONS TO VISIBILITY.




USA.gov is the U.S. government's official web portal to all federal, state and local government web resources and services.